• In France
  • List of Countries
  • For 7 days
  • Water Temperature
  • Satellite Maps
  • Weather Map
  • Weather Widgets
  • user-avatar
    Login

    Hourly Weather Makoua

    Today, 18 February, Sunday

    Time Temperature Precipitation Wind Pressure Humidity
    00:00 +25°C° 0 mm 1 mps 725 mmHg 88%
    01:00 +25°C° 0 mm 1 mps 725 mmHg 89%
    02:00 +25°C° 0 mm 1 mps 725 mmHg 88%
    03:00 +25°C° 0 mm 1 mps 724 mmHg 88%
    04:00 +25°C° 0 mm 1 mps 724 mmHg 88%
    05:00 +25°C° 0 mm 2 mps 725 mmHg 87%
    06:00 +25°C° 0 mm 2 mps 725 mmHg 87%
    07:00 +25°C° 0 mm 2 mps 726 mmHg 86%
    08:00 +27°C° 0 mm 2 mps 726 mmHg 77%
    09:00 +29°C° 0 mm 1 mps 726 mmHg 67%
    10:00 +31°C° 0 mm 1 mps 727 mmHg 58%
    11:00 +32°C° 0.5 mm 1 mps 726 mmHg 57%
    12:00 +33°C° 0.5 mm 1 mps 725 mmHg 56%
    13:00 +33°C° 0.5 mm 1 mps 725 mmHg 55%
    14:00 +32°C° 0.8 mm 1 mps 724 mmHg 59%
    15:00 +31°C° 0.8 mm 1 mps 724 mmHg 63%
    16:00 +30°C° 0.8 mm 1 mps 724 mmHg 67%
    17:00 +29°C° 1.6 mm 1 mps 724 mmHg 74%
    18:00 +27°C° 1.6 mm 1 mps 724 mmHg 82%
    19:00 +26°C° 1.6 mm 1 mps 724 mmHg 89%
    20:00 +25°C° 2.8 mm 1 mps 725 mmHg 91%
    21:00 +25°C° 2.8 mm 1 mps 725 mmHg 93%
    22:00 +25°C° 2.8 mm 1 mps 726 mmHg 95%
    23:00 +25°C° 1.3 mm 1 mps 726 mmHg 95%

    Tomorrow, 19 February, Monday

    Time Temperature Precipitation Wind Pressure Humidity
    00:00 +24°C° 1.3 mm 1 mps 725 mmHg 95%
    01:00 +24°C° 1.3 mm 1 mps 725 mmHg 95%
    02:00 +24°C° 0.9 mm 1 mps 725 mmHg 96%
    03:00 +24°C° 0.9 mm 1 mps 725 mmHg 96%
    04:00 +24°C° 0.9 mm 1 mps 724 mmHg 96%
    05:00 +24°C° 0.7 mm 1 mps 725 mmHg 96%
    06:00 +24°C° 0.7 mm 1 mps 725 mmHg 95%
    07:00 +24°C° 0.7 mm 1 mps 725 mmHg 95%
    08:00 +24°C° 0.7 mm 1 mps 726 mmHg 94%
    09:00 +24°C° 0.7 mm 1 mps 726 mmHg 92%
    10:00 +25°C° 0.7 mm 1 mps 727 mmHg 91%
    11:00 +26°C° 0.7 mm 1 mps 726 mmHg 87%
    12:00 +27°C° 0.7 mm 1 mps 726 mmHg 83%
    13:00 +28°C° 0.7 mm 1 mps 725 mmHg 79%
    14:00 +26°C° 0.3 mm 0 mps 725 mmHg 74%
    15:00 +27°C° 0.3 mm 0 mps 724 mmHg 69%
    16:00 +28°C° 0.3 mm 0 mps 724 mmHg 65%
    17:00 +26°C° 0 mm 0 mps 724 mmHg 70%
    18:00 +25°C° 0 mm 0 mps 725 mmHg 76%
    19:00 +24°C° 0 mm 0 mps 725 mmHg 81%
    20:00 +25°C° 0 mm 1 mps 725 mmHg 83%
    21:00 +25°C° 0 mm 1 mps 726 mmHg 85%
    22:00 +25°C° 0 mm 1 mps 726 mmHg 87%
    23:00 +24°C° 0.1 mm 1 mps 726 mmHg 88%

    Day after tomorrow, 20 February, Tuesday

    Time Temperature Precipitation Wind Pressure Humidity
    00:00 +24°C° 0.1 mm 1 mps 725 mmHg 89%
    01:00 +24°C° 0.1 mm 1 mps 725 mmHg 90%
    02:00 +24°C° 0.2 mm 1 mps 725 mmHg 91%
    03:00 +23°C° 0.2 mm 1 mps 725 mmHg 93%
    04:00 +23°C° 0.2 mm 1 mps 724 mmHg 94%
    05:00 +21°C° 0.3 mm 0 mps 725 mmHg 94%
    06:00 +21°C° 0.3 mm 0 mps 725 mmHg 94%
    07:00 +21°C° 0.3 mm 0 mps 726 mmHg 94%
    08:00 +22°C° 0.1 mm 0 mps 726 mmHg 91%
    09:00 +23°C° 0.1 mm 0 mps 726 mmHg 87%
    10:00 +24°C° 0.1 mm 0 mps 727 mmHg 84%
    11:00 +28°C° 0 mm 1 mps 726 mmHg 73%
    12:00 +30°C° 0 mm 1 mps 725 mmHg 62%
    13:00 +33°C° 0 mm 1 mps 724 mmHg 51%
    14:00 +32°C° 0 mm 1 mps 724 mmHg 51%
    15:00 +32°C° 0 mm 1 mps 723 mmHg 51%
    16:00 +30°C° 0 mm 0 mps 722 mmHg 50%
    17:00 +28°C° 0 mm 0 mps 722 mmHg 57%
    18:00 +27°C° 0 mm 0 mps 723 mmHg 63%
    19:00 +25°C° 0 mm 0 mps 723 mmHg 69%
    20:00 +25°C° 0 mm 0 mps 724 mmHg 71%
    21:00 +24°C° 0 mm 0 mps 725 mmHg 73%
    22:00 +26°C° 0 mm 1 mps 725 mmHg 75%
    23:00 +26°C° 0 mm 1 mps 725 mmHg 78%

    21 February, Wednesday

    Time Temperature Precipitation Wind Pressure Humidity
    00:00 +25°C° 0 mm 1 mps 724 mmHg 81%
    01:00 +25°C° 0 mm 1 mps 724 mmHg 83%
    02:00 +25°C° 0 mm 1 mps 724 mmHg 84%
    03:00 +25°C° 0 mm 1 mps 724 mmHg 86%
    04:00 +24°C° 0 mm 1 mps 723 mmHg 87%
    05:00 +25°C° 0 mm 1 mps 724 mmHg 86%
    06:00 +25°C° 0 mm 1 mps 724 mmHg 86%
    07:00 +25°C° 0 mm 1 mps 725 mmHg 85%
    08:00 +28°C° 0 mm 1 mps 725 mmHg 74%
    09:00 +30°C° 0 mm 1 mps 726 mmHg 63%
    10:00 +33°C° 0 mm 1 mps 726 mmHg 52%
    11:00 +33°C° 0 mm 1 mps 725 mmHg 51%
    12:00 +34°C° 0 mm 1 mps 724 mmHg 49%
    13:00 +34°C° 0 mm 1 mps 723 mmHg 48%
    14:00 +33°C° 0.5 mm 1 mps 723 mmHg 53%
    15:00 +32°C° 0.5 mm 1 mps 722 mmHg 58%
    16:00 +31°C° 0.5 mm 1 mps 722 mmHg 63%
    17:00 +30°C° 0.3 mm 1 mps 722 mmHg 69%
    18:00 +29°C° 0.3 mm 1 mps 723 mmHg 75%
    19:00 +27°C° 0.3 mm 1 mps 723 mmHg 80%
    20:00 +26°C° 0.6 mm 1 mps 723 mmHg 84%
    21:00 +26°C° 0.6 mm 1 mps 724 mmHg 87%
    22:00 +25°C° 0.6 mm 1 mps 724 mmHg 91%
    23:00 +24°C° 0.6 mm 1 mps 724 mmHg 91%

    22 February, Thursday

    Time Temperature Precipitation Wind Pressure Humidity
    00:00 +24°C° 0.6 mm 1 mps 724 mmHg 92%
    01:00 +24°C° 0.6 mm 1 mps 724 mmHg 93%
    02:00 +24°C° 0.3 mm 1 mps 724 mmHg 93%
    03:00 +24°C° 0.3 mm 1 mps 723 mmHg 94%
    04:00 +24°C° 0.3 mm 1 mps 723 mmHg 94%
    05:00 +24°C° 0 mm 1 mps 724 mmHg 93%
    06:00 +22°C° 0 mm 0 mps 724 mmHg 93%
    07:00 +22°C° 0 mm 0 mps 724 mmHg 92%
    08:00 +26°C° 0 mm 1 mps 725 mmHg 83%
    09:00 +28°C° 0 mm 1 mps 725 mmHg 73%
    10:00 +30°C° 0 mm 2 mps 725 mmHg 64%
    11:00 +32°C° 0 mm 2 mps 725 mmHg 56%
    12:00 +34°C° 0 mm 1 mps 724 mmHg 48%
    13:00 +36°C° 0 mm 1 mps 723 mmHg 41%
    14:00 +36°C° 0 mm 1 mps 723 mmHg 43%
    15:00 +35°C° 0 mm 1 mps 722 mmHg 44%
    16:00 +34°C° 0 mm 1 mps 722 mmHg 46%
    17:00 +33°C° 0 mm 1 mps 722 mmHg 51%
    18:00 +31°C° 0 mm 1 mps 722 mmHg 56%
    19:00 +28°C° 0 mm 0 mps 723 mmHg 61%
    20:00 +29°C° 0.1 mm 1 mps 723 mmHg 66%
    21:00 +28°C° 0.1 mm 1 mps 723 mmHg 70%
    22:00 +27°C° 0.1 mm 1 mps 724 mmHg 74%
    23:00 +27°C° 0 mm 1 mps 723 mmHg 77%

    23 February, Friday

    Time Temperature Precipitation Wind Pressure Humidity
    00:00 +26°C° 0 mm 1 mps 723 mmHg 80%
    01:00 +26°C° 0 mm 1 mps 723 mmHg 83%
    02:00 +25°C° 0 mm 1 mps 723 mmHg 84%
    03:00 +25°C° 0 mm 1 mps 723 mmHg 85%
    04:00 +23°C° 0 mm 0 mps 723 mmHg 86%
    05:00 +23°C° 0.1 mm 0 mps 724 mmHg 86%
    06:00 +23°C° 0.1 mm 0 mps 724 mmHg 85%
    07:00 +23°C° 0.1 mm 0 mps 725 mmHg 84%
    08:00 +26°C° 0 mm 0 mps 725 mmHg 72%
    09:00 +31°C° 0 mm 1 mps 725 mmHg 60%
    10:00 +34°C° 0 mm 1 mps 725 mmHg 48%
    11:00 +36°C° 0 mm 1 mps 725 mmHg 43%
    12:00 +37°C° 0 mm 1 mps 724 mmHg 39%
    13:00 +40°C° 0 mm 1 mps 723 mmHg 34%
    14:00 +37°C° 0 mm 1 mps 723 mmHg 38%
    15:00 +36°C° 0 mm 1 mps 722 mmHg 42%
    16:00 +35°C° 0 mm 1 mps 722 mmHg 45%
    17:00 +33°C° 0.1 mm 1 mps 722 mmHg 53%
    18:00 +31°C° 0.1 mm 1 mps 722 mmHg 60%
    19:00 +29°C° 0.1 mm 1 mps 723 mmHg 67%
    20:00 +27°C° 0 mm 0 mps 723 mmHg 70%
    21:00 +26°C° 0 mm 0 mps 723 mmHg 72%
    22:00 +26°C° 0 mm 0 mps 723 mmHg 74%
    23:00 +25°C° 0 mm 0 mps 723 mmHg 77%
    Show more